Zurück zum Katalog

COSMOS 1275 DEB

AktivPO
NORAD 13813·DEBRIS·🇷🇺 Russia

Gestartet Jun 4, 1981 von Plesetsk Cosmodrome

Loading…

Nächste Überflüge (nächste 24 Stunden)

TLE

AktuellSource: Space-Track

Epoche: Sep 14, 2026, 05:00 UTC

1 13813U 81053HH  26257.20842767  .00001445  00000-0  71943-3 0  9992
2 13813  82.9378 162.4096 0038311 201.2094 311.7068 14.16033437226454

Verfolge COSMOS 1275 DEB in Echtzeit mit AllMySat

Download on the App Store